Location: Oriwa
(40.7500°S, 175.3333°E)
Time: 10:32:12
(UTC+00:00)

Cosmos 1758 - Pass Details

Date: 03 February 2023
Orbit: 529 x 555 km, 82.5° (Epoch: 19 March)

Event Time Altitude Azimuth Distance (km) Brightness Sun altitude
Rises 16:00:15 0° 202° (SSW) 2,712 7.1 -15.2°
Reaches altitude 10° 16:02:44 10° 216° (SW) 1,813 6.0 -14.9°
Maximum altitude 16:05:53 23° 269° (W) 1,183 4.6 -14.4°
Enters shadow 16:06:26 22° 282° (WNW) 1,206 4.5 -14.3°
